GW0175 Weather Reports


time (UTC)temp
C
wind
direction
speed
KPH
gust
KPH
rain 1hr
cm
rain 24hr
cm
rain mn
cm
humidity
%
barometer
mb
20260509024556 23 220 3.2 3.2 0.00 0.00 0.00 28 1007.8
20260509024052 23 220 3.2 4.8 0.00 0.00 0.00 27 1007.8
20260509023550 25 90 0.0 0.0 0.00 0.00 0.00 23 1007.5
20260509023047 25 90 0.0 1.6 0.00 0.00 0.00 23 1007.5
20260509022543 25 90 0.0 0.0 0.00 0.00 0.00 22 1007.5
20260509022041 25 90 0.0 1.6 0.00 0.00 0.00 22 1007.4
20260509021538 25 90 0.0 0.0 0.00 0.00 0.00 21 1007.3
20260509021035 25 83 0.0 1.6 0.00 0.00 0.00 22 1007.5
20260509020533 25 106 0.0 3.2 0.00 0.00 0.00 23 1007.1
20260509020030 25 81 0.0 0.0 0.00 0.00 0.00 24 1007.3
20260509015529 26 81 0.0 0.0 0.00 0.00 0.00 22 1007.1
20260509015026 26 90 0.0 0.0 0.00 0.00 0.00 21 1006.9
20260509014522 26 99 0.0 0.0 0.00 0.00 0.00 22 1007.2
20260509014018 26 99 0.0 0.0 0.00 0.00 0.00 21 1006.9
20260509013516 27 99 0.0 1.6 0.00 0.00 0.00 21 1006.8
20260509013011 27 90 0.0 0.0 0.00 0.00 0.00 20 1006.5
20260509012508 27 29 0.0 0.0 0.00 0.00 0.00 18 1006.7
20260509012005 28 29 0.0 0.0 0.00 0.00 0.00 18 1006.7
20260509011503 28 29 0.0 0.0 0.00 0.00 0.00 16 1006.8
20260509011000 28 29 0.0 0.0 0.00 0.00 0.00 17 1006.7
20260509010457 28 8 0.0 3.2 0.00 0.00 0.00 16 1006.7
20260509005954 29 355 3.2 4.8 0.00 0.00 0.00 16 1006.4
20260509005452 30 33 3.2 4.8 0.00 0.00 0.00 16 1006.5
20260509004952 30 57 0.0 3.2 0.00 0.00 0.00 15 1006.4
20260509004449 30 28 3.2 4.8 0.00 0.00 0.00 15 1006.3
20260509003946 30 113 3.2 8.0 0.00 0.00 0.00 14 1006.5
20260509003445 31 357 4.8 4.8 0.00 0.00 0.00 13 1006.6
20260509002941 31 54 0.0 4.8 0.00 0.00 0.00 14 1006.4
20260509002439 30 41 3.2 11.3 0.00 0.00 0.00 13 1006.2
20260509001936 31 52 8.0 14.5 0.00 0.00 0.00 13 1006.3
20260509001432 31 39 9.7 11.3 0.00 0.00 0.00 13 1006.4
20260509000929 31 52 8.0 9.7 0.00 0.00 0.00 13 1006.3
20260509000427 31 5 4.8 4.8 0.00 0.00 0.00 12 1006.3
20260508235923 32 90 0.0 4.8 0.00 0.00 0.00 13 1006.5
20260508235421 31 90 0.0 4.8 0.00 0.00 0.00 12 1006.2
20260508234917 31 50 4.8 11.3 0.00 0.00 0.00 13 1006.4
20260508234414 31 42 4.8 9.7 0.00 0.00 0.00 13 1006.2
20260508233912 31 41 6.4 11.3 0.00 0.00 0.00 12 1006.2
20260508233411 31 29 4.8 19.3 0.00 0.00 0.00 13 1006.4
20260508232908 32 10 8.0 9.7 0.00 0.00 0.00 13 1006.4
20260508232404 32 101 0.0 8.0 0.00 0.00 0.00 12 1006.2
20260508231902 32 63 1.6 4.8 0.00 0.00 0.00 12 1006.4
20260508231359 32 90 3.2 4.8 0.00 0.00 0.00 12 1006.2
20260508230856 32 286 1.6 8.0 0.00 0.00 0.00 12 1006.3
20260508230352 31 210 3.2 9.7 0.00 0.00 0.00 12 1006.4
20260508225850 32 328 0.0 4.8 0.00 0.00 0.00 12 1006.2
20260508225346 31 0 6.4 9.7 0.00 0.00 0.00 12 1006.2
20260508224844 31 19 6.4 11.3 0.00 0.00 0.00 12 1006.3
20260508224341 32 270 4.8 6.4 0.00 0.00 0.00 11 1006.3
20260508223839 31 345 6.4 20.9 0.00 0.00 0.00 13 1006.2
20260508223336 32 336 0.0 8.0 0.00 0.00 0.00 11 1006.2
20260508222833 32 325 4.8 12.9 0.00 0.00 0.00 11 1006.3
20260508222330 32 340 1.6 12.9 0.00 0.00 0.00 12 1006.4
20260508221827 32 32 3.2 4.8 0.00 0.00 0.00 12 1006.4
20260508221322 31 165 1.6 11.3 0.00 0.00 0.00 13 1006.3
20260508220819 32 0 0.0 6.4 0.00 0.00 0.00 13 1006.3
20260508220315 32 246 0.0 6.4 0.00 0.00 0.00 13 1006.4
20260508215812 32 277 0.0 8.0 0.00 0.00 0.00 13 1006.6
20260508215309 32 90 1.6 3.2 0.00 0.00 0.00 13 1006.4
20260508214806 32 229 3.2 8.0 0.00 0.00 0.00 14 1006.6
20260508214303 32 234 4.8 9.7 0.00 0.00 0.00 14 1006.4
20260508213759 32 270 4.8 4.8 0.00 0.00 0.00 13 1006.7
20260508213256 31 161 4.8 8.0 0.00 0.00 0.00 14 1006.9
20260508212753 31 203 3.2 6.4 0.00 0.00 0.00 14 1006.9
20260508212249 31 171 3.2 8.0 0.00 0.00 0.00 15 1006.9
20260508211745 31 112 4.8 6.4 0.00 0.00 0.00 15 1006.9
20260508211240 31 169 6.4 9.7 0.00 0.00 0.00 14 1006.7
20260508210738 31 155 4.8 6.4 0.00 0.00 0.00 15 1006.9
20260508210235 31 270 0.0 6.4 0.00 0.00 0.00 14 1006.9
20260508205732 30 168 3.2 9.7 0.00 0.00 0.00 15 1007.3
20260508205228 30 278 0.0 14.5 0.00 0.00 0.00 15 1007.1
20260508204725 31 241 4.8 4.8 0.00 0.00 0.00 15 1007.3
20260508204221 30 23 1.6 4.8 0.00 0.00 0.00 16 1007.3
20260508203717 29 225 8.0 9.7 0.00 0.00 0.00 17 1007.4
20260508203213 30 135 3.2 11.3 0.00 0.00 0.00 17 1007.5
20260508202710 30 168 3.2 8.0 0.00 0.00 0.00 17 1007.6
20260508202207 30 98 8.0 9.7 0.00 0.00 0.00 17 1007.7
20260508201704 30 130 6.4 14.5 0.00 0.00 0.00 18 1007.7
20260508201200 30 173 8.0 17.7 0.00 0.00 0.00 17 1007.9
20260508200657 30 240 4.8 8.0 0.00 0.00 0.00 18 1008.0
20260508200153 30 270 0.0 8.0 0.00 0.00 0.00 19 1007.9
20260508195650 30 150 3.2 9.7 0.00 0.00 0.00 19 1008.2
20260508195147 30 117 0.0 9.7 0.00 0.00 0.00 20 1008.0
20260508194643 30 297 8.0 8.0 0.00 0.00 0.00 22 1008.2
20260508194140 30 8 3.2 8.0 0.00 0.00 0.00 23 1008.2
20260508193637 28 191 4.8 11.3 0.00 0.00 0.00 23 1008.4
20260508193134 30 165 6.4 11.3 0.00 0.00 0.00 22 1008.5
20260508192630 28 49 3.2 9.7 0.00 0.00 0.00 23 1008.4
20260508192128 28 283 1.6 6.4 0.00 0.00 0.00 23 1008.7
20260508191624 28 75 1.6 6.4 0.00 0.00 0.00 24 1008.7
20260508191121 28 210 3.2 6.4 0.00 0.00 0.00 26 1008.6
20260508190619 28 166 8.0 9.7 0.00 0.00 0.00 26 1008.6
20260508190115 28 106 8.0 8.0 0.00 0.00 0.00 26 1008.8
20260508185612 28 185 4.8 8.0 0.00 0.00 0.00 26 1008.9
20260508185109 27 151 0.0 8.0 0.00 0.00 0.00 26 1008.9
20260508184606 27 156 9.7 11.3 0.00 0.00 0.00 27 1008.9
20260508184103 28 204 3.2 6.4 0.00 0.00 0.00 26 1009.1
20260508183600 27 0 6.4 6.4 0.00 0.00 0.00 27 1009.2
20260508183056 27 320 0.0 4.8 0.00 0.00 0.00 27 1009.2
20260508182552 27 189 4.8 8.0 0.00 0.00 0.00 28 1009.5
20260508182049 27 229 4.8 8.0 0.00 0.00 0.00 29 1009.5
20260508181544 27 235 6.4 8.0 0.00 0.00 0.00 30 1009.5
20260508181042 27 170 4.8 4.8 0.00 0.00 0.00 28 1009.9
20260508180538 26 41 6.4 6.4 0.00 0.00 0.00 31 1009.9
20260508180035 26 356 3.2 6.4 0.00 0.00 0.00 31 1009.9
20260508175531 26 297 4.8 8.0 0.00 0.00 0.00 32 1010.0
20260508175029 26 287 9.7 9.7 0.00 0.00 0.00 32 1010.2
20260508174526 26 254 3.2 4.8 0.00 0.00 0.00 33 1010.0
20260508174023 25 95 0.0 8.0 0.00 0.00 0.00 35 1010.1
20260508173520 25 212 3.2 6.4 0.00 0.00 0.00 36 1010.1
20260508173016 25 270 0.0 9.7 0.00 0.00 0.00 37 1010.1
20260508172513 25 353 0.0 6.4 0.00 0.00 0.00 36 1010.3
20260508172009 25 77 3.2 6.4 0.00 0.00 0.00 37 1010.6
20260508171506 25 135 0.0 4.8 0.00 0.00 0.00 37 1010.7
20260508171003 25 180 0.0 6.4 0.00 0.00 0.00 36 1010.7
20260508170500 23 168 3.2 8.0 0.00 0.00 0.00 33 1010.7
20260508165957 24 68 3.2 4.8 0.00 0.00 0.00 41 1010.6
20260508165455 24 250 4.8 8.0 0.00 0.00 0.00 43 1010.7
20260508164950 24 19 0.0 4.8 0.00 0.00 0.00 45 1010.6
20260508164448 23 108 3.2 4.8 0.00 0.00 0.00 45 1010.8
20260508163944 23 123 3.2 6.4 0.00 0.00 0.00 47 1010.7
20260508163442 23 225 3.2 8.0 0.00 0.00 0.00 48 1011.0
20260508162938 22 176 3.2 9.7 0.00 0.00 0.00 50 1010.9
20260508162436 22 148 3.2 11.3 0.00 0.00 0.00 50 1010.8
20260508161932 21 231 3.2 8.0 0.00 0.00 0.00 51 1011.0
20260508161429 21 163 8.0 9.7 0.00 0.00 0.00 53 1010.9
20260508160927 21 225 4.8 9.7 0.00 0.00 0.00 52 1011.0
20260508160426 21 203 1.6 14.5 0.00 0.00 0.00 52 1011.2
20260508155921 21 164 6.4 9.7 0.00 0.00 0.00 54 1010.9
20260508155418 20 225 3.2 11.3 0.00 0.00 0.00 56 1011.1
20260508154915 20 164 6.4 12.9 0.00 0.00 0.00 56 1011.1
20260508154413 21 158 4.8 8.0 0.00 0.00 0.00 57 1011.0
20260508153909 20 164 4.8 12.9 0.00 0.00 0.00 58 1011.2
20260508153406 19 170 4.8 11.3 0.00 0.00 0.00 59 1011.1
20260508152902 20 158 6.4 11.3 0.00 0.00 0.00 59 1011.3
20260508152359 19 157 6.4 12.9 0.00 0.00 0.00 59 1011.4
20260508151855 19 156 8.0 14.5 0.00 0.00 0.00 59 1011.3
20260508151353 18 255 3.2 8.0 0.00 0.00 0.00 62 1011.4
20260508150849 18 238 9.7 19.3 0.00 0.00 0.00 63 1011.3
20260508150346 18 130 4.8 12.9 0.00 0.00 0.00 64 1011.4
20260508145842 17 160 12.9 16.1 0.00 0.00 0.00 64 1011.4
20260508145338 18 185 6.4 6.4 0.00 0.00 0.00 65 1011.4
20260508144835 17 167 0.0 8.0 0.00 0.00 0.00 67 1011.4
20260508144333 17 167 4.8 9.7 0.00 0.00 0.00 68 1011.3
20260508143830 17 180 3.2 11.3 0.00 0.00 0.00 67 1011.6
20260508143327 16 215 1.6 11.3 0.00 0.00 0.00 68 1011.6
20260508142824 16 161 6.4 11.3 0.00 0.00 0.00 69 1011.6
20260508142321 16 180 4.8 11.3 0.00 0.00 0.00 70 1011.6
20260508141817 16 153 6.4 11.3 0.00 0.00 0.00 71 1011.8
20260508141314 16 199 4.8 14.5 0.00 0.00 0.00 71 1011.5
20260508140811 16 165 14.5 19.3 0.00 0.00 0.00 71 1011.3
20260508140308 16 150 8.0 9.7 0.00 0.00 0.00 72 1011.4
20260508135804 15 159 11.3 14.5 0.00 0.00 0.00 74 1011.3
20260508135300 15 176 12.9 12.9 0.00 0.00 0.00 74 1011.3
20260508134756 15 166 9.7 11.3 0.00 0.00 0.00 75 1011.4
20260508134254 15 183 3.2 9.7 0.00 0.00 0.00 76 1011.3
20260508133750 14 146 4.8 6.4 0.00 0.00 0.00 78 1011.4
20260508133248 13 178 4.8 6.4 0.00 0.00 0.00 79 1011.3
20260508132745 13 186 4.8 6.4 0.00 0.00 0.00 79 1011.2
20260508132243 13 172 3.2 6.4 0.00 0.00 0.00 79 1011.3
20260508131738 13 201 3.2 3.2 0.00 0.00 0.00 80 1011.3
20260508131235 13 103 1.6 4.8 0.00 0.00 0.00 83 1011.4
20260508130731 12 81 0.0 3.2 0.00 0.00 0.00 84 1011.3
20260508130229 12 99 0.0 0.0 0.00 0.00 0.00 86 1011.1
20260508125724 11 23 1.6 3.2 0.00 0.00 0.00 86 1011.1
20260508125221 10 41 0.0 3.2 0.00 0.00 0.00 86 1011.0
20260508124719 10 35 0.0 0.0 0.00 0.00 0.00 87 1010.9
20260508124216 9 35 0.0 0.0 0.00 0.00 0.00 87 1011.0
20260508123714 8 17 4.8 4.8 0.00 0.00 0.00 87 1010.9
20260508123212 9 12 1.6 1.6 0.00 0.00 0.00 87 1011.0
20260508122708 9 0 1.6 1.6 0.00 0.00 0.00 87 1010.9
20260508122205 8 186 0.0 1.6 0.00 0.00 0.00 88 1011.0
20260508121702 9 196 0.0 3.2 0.00 0.00 0.00 88 1011.0
20260508121201 9 173 0.0 1.6 0.00 0.00 0.00 88 1011.1
20260508120658 9 188 0.0 4.8 0.00 0.00 0.00 88 1011.1
20260508120156 9 168 0.0 3.2 0.00 0.00 0.00 88 1011.2
20260508115653 9 148 4.8 8.0 0.00 0.00 0.00 88 1011.2
20260508115150 10 164 8.0 8.0 0.00 0.00 0.00 88 1011.1
20260508114647 10 168 0.0 4.8 0.00 0.00 0.00 88 1011.0
20260508114143 10 154 1.6 3.2 0.00 0.00 0.00 88 1010.7
20260508113640 10 14 0.0 1.6 0.00 0.00 0.00 88 1010.7
20260508113138 10 106 0.0 0.0 0.00 0.00 0.00 88 1010.6
20260508112629 10 29 0.0 1.6 0.00 0.00 0.00 88 1010.8
20260508112126 10 63 1.6 3.2 0.00 0.00 0.00 87 1010.6
20260508111622 10 0 3.2 3.2 0.00 0.00 0.00 87 1010.4
20260508111120 10 5 3.2 4.8 0.00 0.00 0.00 87 1010.4
20260508110618 10 26 0.0 3.2 0.00 0.00 0.00 87 1010.6
20260508110113 10 21 3.2 3.2 0.00 0.00 0.00 87 1010.7
20260508105608 10 8 0.0 0.0 0.00 0.00 0.00 87 1010.8
20260508105105 10 8 0.0 0.0 0.00 0.00 0.00 86 1010.6
20260508104603 10 4 0.0 3.2 0.00 0.00 0.00 86 1010.3
20260508104059 10 23 0.0 0.0 0.00 0.00 0.00 86 1010.4
20260508103557 10 23 0.0 1.6 0.00 0.00 0.00 86 1010.4
20260508103054 10 14 0.0 0.0 0.00 0.00 0.00 85 1010.7
20260508102551 10 8 0.0 0.0 0.00 0.00 0.00 85 1010.2
20260508102049 10 8 0.0 3.2 0.00 0.00 0.00 84 1010.8
20260508101546 11 63 0.0 1.6 0.00 0.00 0.00 84 1010.6
20260508101043 11 277 0.0 0.0 0.00 0.00 0.00 84 1010.7
20260508100541 11 277 0.0 0.0 0.00 0.00 0.00 83 1010.4
20260508100038 11 99 0.0 1.6 0.00 0.00 0.00 83 1010.4
20260508095535 11 90 0.0 0.0 0.00 0.00 0.00 83 1010.7
20260508095032 11 90 0.0 1.6 0.00 0.00 0.00 83 1010.8
20260508094529 11 345 0.0 1.6 0.00 0.00 0.00 82 1010.8
20260508094026 11 169 1.6 1.6 0.00 0.00 0.00 82 1010.3
20260508093523 11 105 0.0 3.2 0.00 0.00 0.00 82 1010.7
20260508093021 11 287 0.0 3.2 0.00 0.00 0.00 81 1010.8
20260508092518 11 132 3.2 3.2 0.00 0.00 0.00 81 1010.8
20260508092017 11 148 0.0 4.8 0.00 0.00 0.00 81 1010.8
20260508091513 12 139 3.2 6.4 0.00 0.00 0.00 81 1010.6
20260508091010 11 41 0.0 3.2 0.00 0.00 0.00 80 1010.7
20260508090508 12 105 0.0 3.2 0.00 0.00 0.00 80 1010.7
20260508090005 12 117 0.0 3.2 0.00 0.00 0.00 80 1010.9
20260508085501 12 111 0.0 3.2 0.00 0.00 0.00 79 1010.9
20260508084958 12 90 1.6 4.8 0.00 0.00 0.00 78 1010.4
20260508084454 12 151 3.2 4.8 0.00 0.00 0.00 78 1010.7
20260508083952 13 124 0.0 3.2 0.00 0.00 0.00 77 1010.9
20260508083449 13 246 0.0 4.8 0.00 0.00 0.00 77 1011.1
20260508082944 13 154 0.0 4.8 0.00 0.00 0.00 76 1010.9
20260508082442 13 123 0.0 4.8 0.00 0.00 0.00 76 1010.9
20260508081939 13 139 3.2 4.8 0.00 0.00 0.00 75 1011.1
20260508081436 13 174 1.6 4.8 0.00 0.00 0.00 75 1011.1
20260508080932 13 180 1.6 3.2 0.00 0.00 0.00 75 1011.1
20260508080430 13 131 3.2 4.8 0.00 0.00 0.00 74 1011.0
20260508075927 14 107 6.4 6.4 0.00 0.00 0.00 73 1011.1
20260508075424 14 112 3.2 6.4 0.00 0.00 0.00 73 1011.0
20260508074922 14 110 3.2 4.8 0.00 0.00 0.00 72 1011.0
20260508074419 15 117 4.8 8.0 0.00 0.00 0.00 71 1011.1
20260508073915 15 150 8.0 12.9 0.00 0.00 0.00 70 1011.0
20260508073413 15 159 6.4 16.1 0.00 0.00 0.00 70 1011.0
20260508072910 15 173 8.0 11.3 0.00 0.00 0.00 69 1011.4
20260508072406 15 179 6.4 11.3 0.00 0.00 0.00 69 1011.3
20260508071904 15 157 6.4 9.7 0.00 0.00 0.00 69 1011.5
20260508071402 15 164 8.0 9.7 0.00 0.00 0.00 68 1011.3
20260508070859 15 180 4.8 9.7 0.00 0.00 0.00 68 1011.3
20260508070357 16 175 1.6 9.7 0.00 0.00 0.00 67 1011.6
20260508065854 16 180 6.4 8.0 0.00 0.00 0.00 66 1011.6
20260508065352 16 148 4.8 12.9 0.00 0.00 0.00 66 1011.6
20260508064850 16 166 6.4 11.3 0.00 0.00 0.00 66 1011.5
20260508064347 16 180 8.0 14.5 0.00 0.00 0.00 65 1011.5
20260508063845 16 145 9.7 17.7 0.00 0.00 0.00 65 1011.6
20260508063343 16 170 4.8 16.1 0.00 0.00 0.00 64 1011.8
20260508062839 16 152 9.7 14.5 0.00 0.00 0.00 64 1011.4
20260508062337 17 183 8.0 20.9 0.00 0.00 0.00 63 1011.5
20260508061834 17 155 8.0 16.1 0.00 0.00 0.00 63 1011.3
20260508061332 17 191 9.7 14.5 0.00 0.00 0.00 62 1011.5
20260508060828 17 162 11.3 19.3 0.00 0.00 0.00 62 1011.5
20260508060326 17 156 12.9 19.3 0.00 0.00 0.00 61 1011.2
20260508055820 17 192 8.0 22.5 0.00 0.00 0.00 60 1011.3
20260508055318 17 194 6.4 19.3 0.00 0.00 0.00 60 1011.3
20260508054815 17 175 12.9 19.3 0.00 0.00 0.00 59 1011.3
20260508054312 17 155 20.9 20.9 0.00 0.00 0.00 59 1011.1
20260508053809 17 116 9.7 17.7 0.00 0.00 0.00 59 1011.3
20260508053306 17 159 8.0 17.7 0.00 0.00 0.00 59 1011.3
20260508052804 17 185 4.8 17.7 0.00 0.00 0.00 59 1011.2
20260508052301 17 187 4.8 17.7 0.00 0.00 0.00 58 1011.2
20260508051757 17 155 8.0 17.7 0.00 0.00 0.00 57 1011.2
20260508051252 18 159 12.9 22.5 0.00 0.00 0.00 57 1011.3
20260508050749 18 180 9.7 19.3 0.00 0.00 0.00 56 1011.3
20260508050246 18 179 8.0 25.7 0.00 0.00 0.00 56 1011.3
20260508045742 18 192 11.3 17.7 0.00 0.00 0.00 56 1011.4
20260508045240 18 192 11.3 20.9 0.00 0.00 0.00 56 1011.4
20260508044737 18 196 17.7 19.3 0.00 0.00 0.00 56 1011.6
20260508044234 18 179 6.4 17.7 0.00 0.00 0.00 55 1011.3
20260508043730 18 168 3.2 14.5 0.00 0.00 0.00 55 1011.6
20260508043227 18 198 4.8 17.7 0.00 0.00 0.00 55 1011.5
20260508042724 18 154 12.9 20.9 0.00 0.00 0.00 54 1011.8
20260508042221 18 177 8.0 14.5 0.00 0.00 0.00 55 1011.3
20260508041718 17 171 8.0 11.3 0.00 0.00 0.00 54 1011.8
20260508041215 17 117 6.4 11.3 0.00 0.00 0.00 54 1011.5
20260508040711 17 178 4.8 6.4 0.00 0.00 0.00 54 1011.6
20260508040208 18 155 4.8 4.8 0.00 0.00 0.00 53 1011.3
20260508035706 18 166 3.2 4.8 0.00 0.00 0.00 53 1011.6
20260508035203 18 156 3.2 6.4 0.00 0.00 0.00 52 1011.6
20260508034659 18 180 3.2 6.4 0.00 0.00 0.00 52 1011.5
20260508034156 18 186 1.6 3.2 0.00 0.00 0.00 53 1011.8
20260508033653 18 169 3.2 4.8 0.00 0.00 0.00 53 1011.3
20260508033152 18 165 1.6 3.2 0.00 0.00 0.00 52 1011.4
20260508032649 18 132 0.0 3.2 0.00 0.00 0.00 52 1011.3
20260508032146 18 236 3.2 4.8 0.00 0.00 0.00 51 1011.2
20260508031643 18 206 3.2 6.4 0.00 0.00 0.00 51 1011.2
20260508031139 18 151 4.8 6.4 0.00 0.00 0.00 51 1011.2
20260508030635 18 153 4.8 8.0 0.00 0.00 0.00 51 1011.0
20260508030133 18 183 4.8 8.0 0.00 0.00 0.00 51 1011.0
20260508025629 18 152 4.8 8.0 0.00 0.00 0.00 50 1010.9
20260508025127 18 151 4.8 6.4 0.00 0.00 0.00 50 1010.9
20260508024622 18 156 3.2 8.0 0.00 0.00 0.00 50 1011.1